Regional Weather Roundup
Issued by NWS

Home | Current Version | Previous Version | Text Only | Print | Product List | Glossary On
Versions: 1 2 3 4 5 6 7 8 9 10 11 12 13 14 15 16 17 18 19 20 21 22 23 24 25 26 27 28 29 30 31 32 33 34 35 36 37 38 39 40 41 42 43 44 45 46 47 48 49 50
000
ASUS43 KTOP 271159
RWRKS

WEATHER ROUNDUP FOR KANSAS
NATIONAL WEATHER SERVICE GOODLAND KS
700 AM CDT WED AUG 27 2014

NOTE:  "FAIR" INDICATES FEW OR NO CLOUDS BELOW 12,000 FEET WITH NO
SIGNIFICANT WEATHER AND/OR OBSTRUCTIONS TO VISIBILITY.

KSZ001>006-013>018-027>032-041>047-271300-
NORTHWEST KANSAS

CITY           SKY/WX    TMP DP  RH WIND       PRES   REMARKS
GOODLAND       CLOUDY    64  63  96 SE8       30.14F
6HR MIN TEMP:  63; 6HR MAX TEMP:  66; 6HR PCP:  0.01;

HAYS           CLOUDY    70  64  83 W8        30.13R
HILL CITY      LGT RAIN  69  66  90 SW3       30.12R
6HR MIN TEMP:  69; 6HR MAX TEMP:  76; 6HR PCP: TRACE;

RUSSELL        CLOUDY    72  67  84 SW8       30.10R
6HR MIN TEMP:  71; 6HR MAX TEMP:  77;

$$

KSZ061>065-074>080-084>089-271300-
SOUTHWEST KANSAS

CITY           SKY/WX    TMP DP  RH WIND       PRES   REMARKS
DODGE CITY     LGT RAIN  67  63  87 S15       30.14F
6HR MIN TEMP:  67; 6HR MAX TEMP:  75; 6HR PCP:  0.32;

ELKHART          N/A     65  61  87 SE15        N/A
GARDEN CITY    CLOUDY    67  63  87 SE16      30.12R
6HR MIN TEMP:  66; 6HR MAX TEMP:  69; 6HR PCP:  0.07;

GREAT BEND     CLOUDY    72  63  73 W9        30.13S
LIBERAL        CLOUDY    66  61  82 SE12      30.15R
$$

KSZ066>073-081>083-090>101-271300-
SOUTHEAST KANSAS

CITY           SKY/WX    TMP DP  RH WIND       PRES   REMARKS
CHANUTE        CLEAR     71  66  84 CALM      30.08R
6HR MIN TEMP:  70; 6HR MAX TEMP:  76;

COFFEYVILLE    CLEAR     73  68  84 SW3       30.07R
6HR MIN TEMP:  72; 6HR MAX TEMP:  80;

HUTCHINSON     CLOUDY    75  65  70 W10       30.11R
6HR MIN TEMP:  72; 6HR MAX TEMP:  77;

NEWTON         PTCLDY    75  63  64 W3        30.13R
PARSONS        CLEAR     70  67  90 CALM      30.09R
6HR MIN TEMP:  70; 6HR MAX TEMP:  79;

WICHITA INTL   MOCLDY    71  66  84 CALM      30.09R
6HR MIN TEMP:  70; 6HR MAX TEMP:  81;

WICHITA JABRA  PTCLDY    73  66  78 SW5       30.09R
6HR MIN TEMP:  73; 6HR MAX TEMP:  81;

WINFIELD       PTCLDY    70  66  87 S3        30.10R
6HR MIN TEMP:  70; 6HR MAX TEMP:  79;

$$

KSZ007>012-019>026-033>040-048>060-102>105-271300-
NORTHEAST KANSAS

CITY           SKY/WX    TMP DP  RH WIND       PRES   REMARKS
CONCORDIA      CLOUDY    70  70 100 E5        30.07R
6HR MIN TEMP:  69; 6HR MAX TEMP:  73; 6HR PCP:  0.12;

EMPORIA        CLEAR     70  67  90 S5        30.08R
6HR MIN TEMP:  70; 6HR MAX TEMP:  76;

LAWRENCE       PTCLDY    75  69  81 E5        30.08R
6HR MIN TEMP:  74; 6HR MAX TEMP:  81;

MANHATTAN      LGT RAIN  74  70  87 W6        30.06R
6HR MIN TEMP:  73; 6HR MAX TEMP:  75; 6HR PCP: TRACE;

OLATHE IND     PTCLDY    72  67  84 E5        30.10R
6HR MIN TEMP:  70; 6HR MAX TEMP:  78;

OLATHE EXE     CLEAR     71  68  90 S3        30.09R
6HR MIN TEMP:  71; 6HR MAX TEMP:  78;

SALINA         MOCLDY    76  68  76 SW6       30.08R
6HR MIN TEMP:  73; 6HR MAX TEMP:  79;

TOPEKA BILLARD CLOUDY    76  72  87 E6        30.07R
6HR MIN TEMP:  76; 6HR MAX TEMP:  79;

TOPEKA FORBES  PTCLDY    73  69  87 SE6       30.08R
6HR MIN TEMP:  72; 6HR MAX TEMP:  78;

$$



USA.gov is the U.S. government's official web portal to all federal, state and local government web resources and services.